Weather in Andreyevka

Russia / Belgorod Oblast     50°56′06″N   38°02′49″E
temp.,
°C
wind,
m/s
gust,
m/s
humid.,
%
clouds,
%
prec.,
mm/h
press.,
hPa
HPBL,
m
15 april, thu
thu1500:00+12se4864100 0.0 1014177
03:00+10se3577100 0.0 101496
06:00+8ssw369598 0.0 1014155
09:00+12sw346533 0.0 1014562
12:00+15ssw45494 0.0 10141518
15:00+16s564385 0.0 10132002
18:00+14s5658100 0.1 1013953
21:00+10ssw488883 1.2 1014267
16 april, fri
fri1600:00+9ssw35835 0.1 1014155
03:00+8sse34842 0.1 101575
06:00+7sse36920 0.0 1016145
09:00+10sse57670 0.0 1017835
12:00+13s69495 0.0 10171695
15:00+13ssw6753100 0.0 10171121
18:00+13s345393 0.0 10171012
21:00+10s23675 0.0 101740
17 april, sat
sat1700:00+8s237555 0.0 101836
03:00+7sw2382100 0.0 101862
06:00+6sw1188100 0.1 101917
09:00+9wsw3373100 0.1 1018512
12:00+12wsw455495 0.3 10181415
15:00+13w6748100 1.1 10181694
18:00+12wsw5753100 0.3 1018740
21:00+9w3667100 0.3 1019148
18 april, sun
sun1800:00+7wsw357797 0.0 1020130
03:00+5wsw228338 0.0 102031
06:00+4sw359137 0.0 1020156
09:00+8sw347098 0.0 1020742
12:00+9ssw4466100 0.1 10191115
15:00+10ssw326294 0.3 1019919
18:00+10sw115989 0.3 1019988
21:00+8ne007264 0.5 101910
19 april, mon
mon1900:00+6n11795 0.0 102010
03:00+5n22885 0.0 102020
06:00+4n23967 0.0 102069
09:00+9ne34735 0.0 1020612
12:00+13ne445193 0.1 10191730
15:00+11ne886788 0.2 1019872
18:00+11ne68656 0.0 10191051
21:00+8ene7118698 0.0 1019628